Theta_e
328 329 333 342 344 343 343 344 350 354 352 357 358 359 352 347 348 353 351 349 343 345 344 345 344 343 346 346 345 344 346 347 350 348 345 347 343 345 343 345 348 347 349 350
329 328 330 340 340 341 341 341 349 348 346 349 348 358 354 349 349 349 347 350 346 347 349 347 345 345 346 346 347 345 348 349 350 349 348 347 345 344 344 348 346 349 349 352
328 328 328 331 332 333 332 337 345 348 343 348 357 353 352 350 351 348 348 350 348 348 348 345 346 346 346 348 349 349 350 351 349 350 347 350 347 348 346 350 349 349 349 353
326 327 328 327 328 329 333 336 339 342 350 352 342 356 350 344 346 350 350 349 351 348 347 347 347 346 346 348 347 351 350 352 350 350 350 348 349 349 347 348 348 348 350 352
326 325 326 326 325 330 333 335 336 339 347 347 344 346 351 346 348 355 351 349 348 350 347 346 345 345 346 348 348 350 352 351 351 351 351 349 350 348 347 350 348 349 351 352
324 327 324 325 326 328 330 331 334 336 339 341 344 342 357 357 351 351 351 352 348 345 347 345 341 346 343 346 348 352 352 352 353 353 352 351 349 344 346 352 348 353 351 353
324 328 326 325 327 328 328 331 344 346 344 343 341 337 351 345 345 351 351 352 351 348 344 348 347 348 343 339 348 352 352 352 351 355 348 347 349 351 350 349 349 347 351 352
327 328 326 327 328 331 330 332 351 350 355 345 341 340 343 345 344 345 349 349 347 348 346 349 346 348 347 344 350 352 354 354 354 353 354 349 351 353 353 349 349 348 348 348
329 330 328 328 330 334 334 334 334 338 338 343 341 337 337 337 342 346 349 349 348 345 348 347 346 348 349 347 351 354 355 355 354 354 352 352 351 353 351 349 343 348 348 348
330 332 330 330 330 330 329 331 333 332 334 340 340 340 343 340 339 341 347 349 350 348 347 347 349 348 348 348 351 355 357 357 355 354 352 352 354 351 352 350 349 346 352 348
328 330 333 331 328 328 328 329 331 332 334 341 347 341 340 341 338 339 348 346 348 349 348 349 348 348 350 348 348 353 358 357 357 355 355 353 353 352 350 354 353 353 349 339
327 327 336 333 330 329 329 331 330 332 334 335 343 341 338 339 336 344 345 347 349 348 347 348 347 347 346 352 348 346 349 357 355 355 354 354 351 354 355 353 350 352 351 341
328 327 329 337 334 330 330 331 330 332 335 340 341 342 340 337 338 340 345 347 349 350 349 348 350 348 346 347 353 351 349 338 348 354 353 354 355 355 353 354 352 354 351 351
329 327 330 337 339 335 333 331 330 331 333 337 342 342 340 339 339 338 347 346 345 350 349 350 348 352 350 351 350 351 351 349 342 354 354 355 356 356 355 355 353 353 353 351
329 329 331 334 335 336 333 332 330 331 331 332 336 341 339 345 341 341 341 344 345 348 349 349 350 351 350 351 355 354 352 356 356 353 354 356 357 356 355 355 355 353 352 352
330 336 332 333 337 337 333 330 329 328 328 328 331 337 341 340 345 347 343 343 344 344 346 348 350 353 350 350 352 354 352 355 351 348 350 350 343 351 354 353 354 353 353 353
331 332 337 335 336 338 339 331 329 328 328 329 331 339 342 341 338 340 348 343 345 345 345 346 349 350 351 349 349 349 349 347 350 349 348 352 354 353 353 353 356 356 356 354
335 338 337 334 335 340 336 332 330 330 329 329 329 330 336 340 342 341 342 342 343 346 344 346 346 348 348 349 350 351 351 350 347 345 341 343 353 356 355 355 358 358 359 358
332 338 336 337 335 335 334 332 332 331 331 329 330 330 335 338 341 341 340 341 343 343 342 341 342 343 344 344 346 349 350 351 352 350 347 344 348 352 354 355 356 359 357 357
331 334 336 336 337 341 334 332 331 331 332 332 333 334 335 339 341 341 340 339 339 339 338 337 337 340 339 341 341 344 347 348 349 349 351 352 352 352 353 353 354 356 356 357
332 336 337 336 336 334 332 333 331 334 336 332 333 334 340 343 343 342 337 337 336 335 336 336 336 336 335 337 340 342 347 347 346 347 349 350 350 351 352 352 351 352 355 356
337 336 335 336 340 336 332 332 333 341 335 332 332 334 344 344 340 338 336 335 333 333 331 332 336 339 337 338 339 341 345 347 345 346 348 348 350 350 350 351 352 353 355 355
335 333 338 336 333 343 334 333 333 331 333 332 333 333 342 338 336 333 334 333 331 331 332 333 334 336 337 338 340 341 344 345 342 346 348 347 348 348 346 347 348 350 348 348
334 331 334 340 338 336 336 334 332 331 332 332 331 332 334 336 334 333 332 332 333 333 332 332 333 335 338 338 341 345 344 342 341 346 347 347 347 342 340 338 338 339 341 345
333 336 335 336 338 336 336 334 331 331 331 331 332 332 334 334 332 333 334 334 333 333 332 332 334 336 337 337 340 342 340 343 343 344 345 345 342 341 333 333 332 334 335 336
336 337 335 338 338 341 334 335 330 331 333 331 332 333 334 332 334 335 335 333 332 334 334 335 335 336 337 336 339 338 337 342 342 344 344 341 338 336 333 329 322 326 329 331
Wind_Speed
15 12 15 22 12 23 20 18 17 10 14 11 13 12 11 16 15 20 4 11 15 12 9 27 21 25 28 23 21 19 18 17 13 13 11 15 11 11 11 11 8 9 7 7
15 14 18 19 17 20 17 14 8 6 9 10 11 7 7 16 15 15 17 15 7 2 11 15 6 28 23 23 23 22 21 17 14 11 11 5 14 13 11 11 9 10 9 8
17 15 13 13 6 9 11 3 7 6 6 7 19 4 6 6 9 15 15 16 7 5 4 14 26 19 25 24 25 20 19 19 16 11 8 6 7 9 9 15 11 10 11 8
15 15 4 10 12 10 14 7 10 12 11 5 6 4 4 8 13 18 17 15 18 22 16 8 18 22 19 24 22 23 20 18 17 12 14 11 8 9 10 12 13 15 12 10
12 13 14 10 13 12 5 5 9 5 12 7 12 7 6 9 13 19 18 19 19 18 21 19 7 12 17 26 23 24 22 21 18 16 10 13 8 13 10 8 17 16 14 10
19 5 10 12 13 12 9 3 9 11 11 11 11 4 1 10 8 18 18 18 16 18 23 18 24 23 18 3 21 26 24 22 18 17 13 14 11 13 6 13 15 13 17 14
13 11 10 14 12 6 11 14 2 5 4 8 9 6 8 12 14 24 30 17 19 18 17 16 9 21 23 24 33 29 28 24 20 19 18 15 13 11 7 14 13 15 16 18
14 13 14 10 14 7 12 15 7 3 6 5 16 4 8 18 10 11 8 11 7 15 14 15 25 30 29 37 34 30 29 26 24 21 19 18 16 13 12 13 11 9 11 20
11 12 18 14 15 12 8 10 10 16 18 11 11 10 12 9 12 12 9 17 19 18 13 13 13 25 29 40 28 32 34 29 27 24 21 19 20 18 17 16 14 11 13 19
19 11 12 15 11 10 11 12 9 8 4 1 6 5 8 7 7 7 8 16 12 14 15 10 11 17 30 31 19 33 35 34 30 26 25 21 20 22 19 14 13 17 11 7
16 10 6 11 9 13 9 11 11 13 4 5 4 4 11 9 3 7 17 23 23 11 10 7 7 11 19 27 28 21 31 28 26 26 28 26 23 22 22 16 15 15 16 17
13 14 13 15 13 13 17 12 9 7 5 6 11 8 13 11 7 12 12 14 12 9 8 6 3 3 5 14 21 27 30 16 28 26 27 26 26 26 24 20 19 16 15 16
11 13 10 7 12 15 8 9 11 9 4 7 9 9 10 11 10 9 15 12 8 7 5 4 11 8 11 15 14 25 27 19 23 28 29 29 27 24 23 23 23 21 22 22
4 15 14 6 11 14 13 10 14 14 9 6 9 9 13 12 14 6 14 14 9 9 6 7 5 4 4 6 11 13 22 39 41 38 31 28 28 26 25 22 25 24 22 23
8 15 17 9 15 17 7 9 6 8 10 11 5 10 2 5 9 11 10 13 12 10 8 6 8 6 2 5 3 8 15 9 11 25 23 22 23 24 23 23 20 20 22 22
13 14 15 15 10 19 15 7 7 8 12 10 10 6 16 13 11 11 10 12 10 9 10 7 6 7 5 4 8 7 9 4 5 12 4 20 26 25 24 22 20 21 22 24
16 13 12 16 13 19 24 11 10 10 9 6 7 12 13 8 5 6 9 7 9 10 8 10 9 7 6 6 6 9 11 9 1 4 9 24 14 20 25 22 20 22 26 26
16 15 13 13 12 9 15 6 2 8 3 3 6 2 8 9 9 5 7 6 8 8 7 6 6 11 8 12 10 6 7 10 13 10 12 11 11 15 17 19 21 24 25 24
8 10 13 13 12 11 17 10 6 8 8 8 8 8 7 9 8 7 5 9 7 9 6 5 6 5 7 6 2 6 7 10 14 13 16 16 16 18 16 19 22 25 25 25
9 15 10 9 11 14 10 16 12 9 6 8 8 4 6 7 6 6 10 8 8 10 7 5 5 6 5 5 5 5 8 10 11 13 11 12 12 15 16 17 19 22 24 25
8 8 13 10 10 11 7 13 5 6 4 4 9 8 9 8 7 12 11 7 7 6 5 5 4 5 4 4 4 6 6 8 14 15 15 15 14 14 15 17 18 17 18 21
18 11 10 8 18 11 7 9 11 7 6 4 2 6 15 13 13 12 10 7 4 1 4 4 8 9 9 5 3 5 9 5 9 16 16 15 14 12 9 7 10 12 13 16
12 3 11 14 9 10 12 5 11 6 5 5 5 8 16 13 8 10 8 7 3 2 4 5 7 9 4 7 5 6 7 6 11 16 13 10 8 6 5 4 5 5 6 9
10 11 14 12 13 10 10 4 10 10 8 9 5 5 9 7 12 8 7 6 5 4 4 6 9 10 9 5 1 2 3 8 15 15 10 6 10 6 4 6 5 6 6 6
4 5 17 18 20 9 19 21 10 11 10 10 11 7 9 8 5 8 8 5 3 4 6 8 8 8 10 9 4 3 6 9 13 14 9 9 6 6 4 3 2 6 7 7
9 6 8 6 22 8 5 11 9 9 12 7 7 9 8 6 7 8 6 7 4 6 7 10 8 9 8 7 6 7 11 9 10 11 6 7 8 8 5 3 1 4 3 6
Wind_Direction
213 234 247 55 55 157 179 224 244 162 195 140 217 217 184 189 203 204 243 287 164 169 202 161 159 156 153 156 159 157 149 152 145 176 173 175 182 195 177 159 134 170 201 235
223 234 256 138 203 191 206 185 183 116 164 107 295 233 210 178 197 204 186 225 142 77 146 348 174 155 163 157 160 164 161 164 180 204 198 224 189 170 187 169 177 181 202 220
242 220 226 273 236 233 247 237 62 182 215 199 191 92 11 322 251 212 206 159 153 128 164 198 229 194 169 158 160 172 172 174 192 204 200 212 153 161 163 152 162 185 197 205
232 269 255 277 264 243 257 11 164 187 176 225 230 219 162 272 274 196 210 195 177 193 170 214 276 180 164 161 166 169 177 175 191 201 179 188 181 162 187 190 186 183 195 192
236 229 254 237 244 240 267 180 270 264 191 204 240 243 207 224 254 199 207 205 191 190 176 196 193 265 209 163 169 166 175 179 186 199 188 180 149 213 198 289 172 179 189 188
256 237 215 236 235 233 271 293 248 250 250 236 243 263 145 182 158 272 254 203 197 198 181 196 171 191 272 214 163 164 172 181 188 190 190 180 161 189 249 184 169 187 192 193
227 236 229 235 219 202 235 247 85 321 280 313 292 256 163 178 190 196 224 182 195 204 201 133 118 208 179 231 206 164 168 175 191 192 200 191 193 190 204 187 202 208 194 196
206 189 199 200 232 174 224 257 119 233 227 284 285 114 113 176 153 109 148 159 137 192 193 161 176 197 168 204 221 169 169 173 182 194 200 204 198 193 206 218 224 228 232 214
249 232 176 184 231 213 321 236 198 203 231 206 197 102 121 130 128 128 144 161 172 208 186 201 212 170 156 175 206 171 167 175 181 189 197 203 200 200 205 212 231 239 263 241
270 129 179 201 207 246 276 316 283 239 283 97 65 5 118 150 128 148 100 40 175 178 174 198 184 160 160 176 172 174 170 173 180 185 192 200 205 206 213 220 219 237 249 130
259 281 211 214 191 235 209 237 253 274 333 222 32 268 147 125 143 136 130 121 249 148 161 177 180 195 174 175 177 169 171 178 178 188 189 195 201 205 214 220 217 231 263 250
237 265 178 225 208 212 247 244 238 241 271 271 175 152 108 120 167 105 98 84 70 91 121 142 125 166 231 184 170 162 248 180 175 194 199 200 194 199 204 209 221 224 224 237
205 244 257 259 222 200 245 255 279 278 234 290 287 131 135 161 142 156 120 112 117 116 113 127 159 187 227 258 162 187 196 178 279 200 199 194 192 198 206 206 208 216 214 220
234 244 239 226 44 290 213 224 244 265 271 151 30 183 172 162 148 133 123 132 144 126 144 108 134 119 236 251 201 213 179 186 186 221 194 199 194 198 202 213 208 215 221 222
237 244 263 187 199 261 276 195 204 235 287 303 93 125 180 132 148 155 144 137 138 141 148 170 128 135 217 273 79 223 228 246 203 189 211 190 197 203 214 213 216 215 222 227
223 243 260 271 83 315 237 249 263 262 278 271 283 131 163 146 132 150 160 149 153 166 145 137 114 139 181 225 267 252 246 292 331 322 188 218 209 234 226 220 226 223 222 227
216 239 240 250 187 189 256 226 244 255 257 265 268 114 124 143 151 157 141 170 162 165 149 150 154 157 160 205 230 255 273 273 117 157 179 254 183 222 231 229 229 228 229 227
198 222 249 250 252 231 265 237 140 4 335 274 272 236 166 149 123 131 146 177 159 134 148 126 141 130 192 183 188 222 268 274 272 254 251 285 277 258 250 242 238 237 234 230
272 231 228 245 246 248 264 176 189 205 239 252 257 272 114 119 125 138 172 152 145 132 122 153 96 68 33 12 128 188 229 250 249 251 261 257 261 261 266 253 250 239 238 237
179 241 282 238 221 256 253 16 203 149 231 234 235 180 150 122 195 175 128 134 136 138 154 162 159 166 193 209 240 259 273 285 284 297 289 287 282 274 266 263 259 253 246 244
261 256 211 257 225 244 187 156 164 197 84 46 165 154 132 104 93 104 115 122 124 145 180 193 202 261 269 258 254 254 245 278 292 289 284 269 274 270 265 268 267 267 252 248
236 237 219 229 249 221 132 126 170 116 135 93 79 155 109 119 132 139 157 143 132 74 323 263 244 218 247 277 284 275 289 244 281 283 283 270 261 256 247 268 279 271 263 259
242 273 268 245 239 179 216 211 158 152 146 134 150 152 140 147 159 153 140 105 94 74 32 333 312 316 293 268 240 264 280 316 297 283 287 268 229 197 224 244 259 280 264 265
192 227 264 293 247 92 1 204 179 159 179 152 168 171 149 150 162 175 134 113 71 34 9 333 319 307 307 277 134 119 313 308 297 289 280 244 186 192 215 231 243 260 272 277
262 212 254 265 275 164 181 226 185 173 146 161 170 167 150 161 154 132 106 95 74 33 346 327 306 294 302 313 328 333 317 302 289 293 273 181 179 193 186 204 292 269 268 277
319 241 198 248 280 168 145 314 180 167 153 167 154 140 128 163 142 126 116 92 57 25 331 313 305 300 299 287 300 299 293 278 287 285 199 202 194 179 165 150 70 357 297 271